TITAN 3C TRANSTAGE DEB, 1961

Orbit data source: Space-Track

TITAN 3C TRANSTAGE DEB, 1961 is space debris in LEO originally from a launch on Fri, 15 Oct 1965 UTC launched from the Air Force Eastern Test Range (AFETR). Debris objects in space refer to the collection of defunct objects orbiting the Earth. Examples of debris include non-operational satellites, rocket bodies, and fragments generated from explosions, collisions, or faulty payload assembly.

Loading next visibility...
Identifier
1961, 1965-082GW
Orbit
LEO
Country
Flag of USUS
Related business
Manufacturer
Unknown
Mission
Spacecraft
Bus & Motor
Unknown
Mass
Unknown
Launch date (UTC)
1965-10-15 (60 years ago)
Launch vehicle
Unknown
Launch site
Air Force Eastern Test Range (AFETR)
Object type
Payload
Rocket body
Debris
Shape & HBR
Unknown
Radar Cross Section
Small (<0.1 m²)

Expand to show TLE details & history
Last TLE update: 8 hours ago

TLE from 8 hours ago
0 TITAN 3C TRANSTAGE DEB
1 01961U 65082GW  25261.17341996  .00006730  00000-0  38423-3 0  9993
2 01961  31.8568 237.0304 0002231  79.1380 280.9525 15.11484011202893
Epoch: 2025-09-18T04:09Z
TLE epoch observation values (Epoch: 2025-09-18T04:09:43.484Z)
Latitude
-0.00003°
Longitude
177.26035°
Altitude
529.974 km
Speed
7.601 km/s
True Right ascension
15h 48m 07s
True Declination
0° 00' 00"
Sunlit
Object was in daylight at epoch
Visualization orbit readout
Latitude
Unknown
Longitude
Unknown
Altitude
Unknown
Speed
Unknown
Apparent Right ascension
Unknown
Apparent Declination
Unknown
Sunlit
N/A
Visualization observer readout
Local Sidereal Time
05:26:22
Azimuth
Unknown
Elevation
Unknown
Doppler factor
Unknown
Orbital elements
Apogee altitude
536.932 km
Perigee altitude
533.847 km
Semi-major axis
6,913.527 km
Eccentricity
0.00022
Inclination
31.8568°
RAAN
237.0304°
Arg. of periapsis
79.138°
True anomaly
280.9274°
Mean anomaly
280.9525°
Eccentric anomaly
280.93995°
Mean motion
3.77567 °/min
Orbital period
95.35 mins
BSTAR
0.00038423
Loading maneuver chart data...
Computing Atmospheric mass density...

Documentation

Showing up to 5 results
|